Location: Newark
(17.9939°S, 31.0481°E)
Time: 16:59:07
(UTC+00:00)

Transit 2A - All Passes

Search period start: 17 November 2019 00:00
Search period end: 27 November 2019 00:00
Orbit: 601 x 957 km, 66.7° (Epoch: 16 November)

Date Brightness Start Highest point End Pass type
(mag) Time Alt. Az. Time Alt. Az. Time Alt. Az.
17 Nov - 07:38:04 10° S 07:43:37 33° ESE 07:48:48 10° NE daylight
17 Nov - 09:21:48 10° SW 09:26:32 24° WNW 09:31:01 10° NNW daylight
17 Nov - 20:23:06 10° NNE 20:26:41 20° ENE 20:30:31 10° ESE night (unlit)
17 Nov - 22:05:01 10° NW 22:09:30 30° WSW 22:14:27 10° S visible
18 Nov - 07:04:41 10° SSE 07:09:21 22° ESE 07:13:46 10° ENE daylight
18 Nov - 08:46:59 10° SW 08:52:36 38° WNW 08:57:48 10° N daylight
18 Nov - 19:51:14 10° ENE 19:52:47 11° ENE 19:54:23 10° E night (unlit)
18 Nov - 21:30:23 10° NW 21:35:17 49° WSW 21:40:46 10° S visible
19 Nov - 06:31:56 10° SSE 06:35:00 14° ESE 06:37:59 10° E daylight
19 Nov - 08:12:30 10° SSW 08:18:36 60° WNW 08:24:11 10° N daylight
19 Nov - 20:56:06 10° NNW 21:01:09 81° WSW 21:06:50 10° SSE visible
20 Nov - 07:38:18 10° SSW 07:44:32 87° ESE 07:50:14 10° NNE daylight
20 Nov - 20:22:08 10° N 20:27:05 61° ENE 20:32:39 10° SSE visible
20 Nov - 22:09:21 10° WSW 22:10:44 11° WSW 22:12:08 10° SW visible
21 Nov - 07:04:18 10° S 07:10:25 56° ESE 07:16:00 10° NE daylight
21 Nov - 08:50:27 10° WSW 08:52:58 13° WNW 08:55:25 10° NW daylight
21 Nov - 19:48:29 10° N 19:53:06 36° ENE 19:58:12 10° SE night (unlit)
21 Nov - 21:32:51 10° WNW 21:36:22 18° WSW 21:40:08 10° SSW visible
22 Nov - 06:30:33 10° S 06:36:12 36° ESE 06:41:27 10° NE daylight
22 Nov - 08:14:38 10° WSW 08:19:03 21° WNW 08:23:15 10° NNW daylight
22 Nov - 19:15:16 10° NNE 19:19:10 22° ENE 19:23:21 10° SE night (unlit)
22 Nov - 20:57:38 10° WNW 21:02:04 28° WSW 21:06:55 10° S visible
23 Nov - 05:57:06 10° S 06:01:57 24° ESE 06:06:30 10° ENE daylight
23 Nov - 07:39:42 10° SW 07:45:07 34° WNW 07:50:09 10° N daylight
23 Nov - 18:42:55 10° NE 18:45:15 13° ENE 18:47:43 10° ESE night (unlit)
23 Nov - 20:22:55 10° NW 20:27:49 45° WSW 20:33:18 10° S visible
24 Nov - 05:24:10 10° SSE 05:27:37 15° ESE 05:30:56 10° E daylight
24 Nov - 07:05:10 10° SSW 07:11:09 54° WNW 07:16:36 10° N daylight
24 Nov - 19:48:35 10° NNW 19:53:41 73° WSW 19:59:24 10° SSE visible
25 Nov - 06:30:54 10° SSW 06:37:06 85° WNW 06:42:44 10° NNE daylight
25 Nov - 19:14:32 10° NNW 19:19:36 69° ENE 19:25:17 10° SSE visible
26 Nov - 05:56:52 10° SSW 06:02:58 61° ESE 06:08:33 10° NNE daylight
26 Nov - 07:43:52 10° W 07:45:28 11° WNW 07:47:02 10° WNW daylight
26 Nov - 18:40:49 10° N 18:45:35 41° ENE 18:50:53 10° SE visible
26 Nov - 20:25:38 10° W 20:28:57 16° WSW 20:32:28 10° SSW visible
